047  
NZUS93 KARX 260159  
HRRWXR  
 
CURRENT HOURLY OBSERVATIONS ACROSS  
MUCH OF THE UPPER MISSISSIPPI VALLEY  
NATIONAL WEATHER SERVICE LA CROSSE WI  
900 PM CDT SUN JUN 25 2017  
 
   
..SOUTHEAST MINNESOTA
 
 
 
CITY SKY/WX TMP DP RH WIND PRES REMARKS  
ROCHESTER CLEAR 57 44 62 W8 30.15S  
ROCHESTER/MAYO FAIR 62 40 44 W9 30.14S  
WINONA PTCLDY 63 43 48 W5 30.11F  
AUSTIN CLEAR 59 39 47 NW6 30.16R  
ALBERT LEA PTCLDY 61 39 44 CALM 30.17S  
DODGE CENTER CLEAR 57 41 54 W5 30.15S  
PRESTON CLEAR 56 43 63 NW6 30.15S  
OWATONNA CLOUDY 61 43 51 W6 30.15S  
FARIBAULT CLOUDY 63 41 45 W5 30.15S  

 
   
..ELSEWHERE IN MINNESOTA
 
 
 
CITY SKY/WX TMP DP RH WIND PRES REMARKS  
MINNEAPOLIS PTCLDY 62 40 44 W8 30.12S  
INTNL FALLS CLEAR 50 45 83 CALM 30.12F  
DULUTH PTCLDY 51 44 77 NW8 30.09R  
RED WING CLEAR 61 37 41 NW3 30.10F  
REDWOOD FALLS CLOUDY 61 47 59 CALM 30.16F  
MANKATO CLOUDY 61 45 55 NW9 30.17R  
WORTHINGTON CLOUDY 62 44 51 N13G18 30.22S  
FAIRMONT CLOUDY 63 45 51 NW8 30.18F  

 
   
..SOUTHWEST WISCONSIN
 
 
 
CITY SKY/WX TMP DP RH WIND PRES REMARKS  
LA CROSSE CLEAR 67 47 48 W9 30.10S  
PRAIRIE DU CHI PTCLDY 63 46 54 SW5 30.12S  
BOSCOBEL CLEAR 61 51 70 CALM 30.12S  
LONE ROCK NOT AVBL  
PLATTEVILLE CLEAR 61 49 65 W6 30.14R  
FORT MC COY CLEAR 57 50 78 W3 30.10S  
MAUSTON-NEW LI CLEAR 56 52 87 CALM 30.09S  
VIROQUA FAIR 58 49 70 W6 30.11F  
WIS DELLS DRIZZLE 56 54 91 W5 30.10S  

 
   
..ELSEWHERE IN WISCONSIN
 
 
 
CITY SKY/WX TMP DP RH WIND PRES REMARKS  
MILWAUKEE LGT RAIN 59 55 87 W9 30.07S  
MADISON MOCLDY 55 53 93 N3 30.10S  
GREEN BAY MOCLDY 59 55 87 W7 30.03S  
EAU CLAIRE CLEAR 53 50 89 NW5 30.10S  
BLACK RVR FLS FAIR 55 47 74 CALM 30.09S  
MEDFORD CLOUDY 52 49 88 W6 30.08R  
WAUSAU CLEAR 55 47 74 NW7 30.05S  
WIS RAPIDS CLOUDY 57 49 74 NW7 30.09S  
MARSHFIELD CLOUDY 54 46 74 NW8 30.08S  
RICE LAKE PTCLDY 56 46 69 CALM 30.12S  

 
   
..NORTHEAST IOWA
 
 
 
CITY SKY/WX TMP DP RH WIND PRES REMARKS  
WATERLOO CLEAR 63 41 44 W7 30.15S  
DUBUQUE CLEAR 58 47 66 W6 30.14F  
DECORAH CLEAR 59 45 58 CALM 30.13S  
MASON CITY MOCLDY 61 40 45 NW9 30.19S  
CHARLES CITY CLEAR 61 41 48 NW8 30.16F  
OELWEIN PTCLDY 59 48 67 NW7 30.16S  

 
   
..ELSEWHERE IN IOWA
 
 
 
CITY SKY/WX TMP DP RH WIND PRES REMARKS  
DES MOINES PTCLDY 67 43 41 W6 30.19S  
IOWA CITY CLEAR 65 44 46 NW6 30.17S  
FORT DODGE CLEAR 64 39 39 N3 30.20S  
MARSHALLTOWN CLEAR 62 43 49 NW8 30.17S  
CEDAR RAPIDS CLEAR 60 46 59 NW6 30.15S  

 
   
..NORTHERN ILLINOIS
 
 
 
CITY SKY/WX TMP DP RH WIND PRES REMARKS  
CHICAGO-OHARE PTCLDY 64 48 56 W15 30.10R  
CHICAGO-MIDWAY PTCLDY 65 49 56 W12 30.10S  
MOLINE CLEAR 63 48 58 W5 30.14F  
ROCKFORD MOCLDY 62 50 64 W5 30.13S  
PEORIA CLEAR 63 50 62 CALM 30.15S  

 
 
NOTE: "FAIR" INDICATES FEW OR NO CLOUDS BELOW 12,000 FEET WITH NO  
SIGNIFICANT WEATHER AND/OR OBSTRUCTIONS TO VISIBILITY. WIND  
SPEEDS ARE IN MILES-PER-HOUR.  
 
 
CLICK HERE TO GO TO PREVIOUS BULLETINS.

The Nexlab WI Page
The Nexlab IA Page
The Nexlab MN Page Main Text Page